Location: Pianadetto
(44.4000°N, 10.1000°E)
Time: 23:36:20
(UTC+00:00)

Cosmos 1328 - Pass Details

Date: 26 May 2022
Orbit: 524 x 551 km, 82.5° (Epoch: 02 July)

Event Time Altitude Azimuth Distance (km) Brightness Sun altitude
Exits shadow 02:53:22 - 210° (SSW) 1,875 5.9 -7.9°
Reaches altitude 10° 02:53:36 10° 212° (SSW) 1,788 5.8 -7.9°
Maximum altitude 02:57:19 41° 283° (WNW) 795 4.4 -7.4°
Drops below altitude 10° 03:01:07 10° 355° (N) 1,818 7.0 -6.9°
Sets 03:03:24 0° 2° (N) 2,721 8.0 -6.5°
